Weather in Staryye Savrushi

Russia / Republic of Tatarstan     54°59′50″N   50°43′59″E
temp.,
°C
wind,
m/s
gust,
m/s
humid.,
%
clouds,
%
prec.,
mm/h
press.,
hPa
HPBL,
m
10 august, wed
wed1000:00+19ne007599 0.6 101811
03:00+18sse11815 1.1 101811
06:00+20w117740 0.0 101852
09:00+25w235964 0.0 1018467
12:00+29wnw454359 0.0 10181699
15:00+28wnw444451 0.0 10181396
18:00+25nw35597 0.0 1018142
21:00+20nw3870100 0.0 1019159
11 august, thu
thu1100:00+18n4885100 0.0 1019216
03:00+16n488470 0.0 1020237
06:00+16n5868100 0.0 1022279
09:00+19nne5750100 0.0 1023659
12:00+22n5544100 0.0 10231107
15:00+22n4542100 0.0 10231228
18:00+20nne475399 0.0 1023439
21:00+16nne3767100 0.0 1024141
12 august, fri
fri1200:00+14ne33760 0.0 102429
03:00+12ne22760 0.0 102516
06:00+15ne116767 0.0 102559
09:00+21nnw11475 0.0 1025752
12:00+23wnw233815 0.0 10241635
15:00+24nw443867 0.0 10231697
18:00+21wnw23545 0.0 102260
21:00+17w33640 0.0 102322
13 august, sat
sat1300:00+15w33710 0.0 102230
03:00+14w33800 0.0 102342
06:00+17w35730 0.0 1023134
09:00+23wnw454818 0.0 1022806
12:00+26nw564063 0.0 10221614
15:00+26nnw5542100 0.0 10211772
18:00+23nnw34555 0.0 102189
21:00+19nne34655 0.0 102253
14 august, sun
sun1400:00+16ne37745 0.0 1023122
03:00+14ene35742 0.0 102385
06:00+16ne36640 0.0 1024159
09:00+21ne44420 0.0 1024790
12:00+24ne44340 0.0 10231548
15:00+24ne433256 0.0 10231697
18:00+21ne364721 0.0 1023145
21:00+16e225699 0.0 102316